Wind_Speed
17 18 19 19 20 20 20 20 20 21 23 25 26 26 26 26 28 28 28 29 30 30 29 29 28 26 25 24 24 24 24 24 24 25 25 25 27 29 29 28 28 28 27 28
16 17 18 18 18 18 18 18 19 20 22 24 25 25 24 25 26 27 28 28 29 29 28 28 28 27 26 25 25 26 25 25 25 26 26 27 28 28 28 29 27 27 28 28
14 15 16 16 16 17 17 17 18 20 21 23 24 23 22 22 23 25 26 27 27 27 28 28 28 27 26 26 26 26 26 26 26 26 27 28 28 29 30 30 30 29 28 26
13 14 15 16 16 16 15 17 18 19 21 21 22 23 22 21 22 23 23 23 25 26 27 27 27 27 27 27 26 27 27 27 27 27 27 27 28 26 26 27 28 28 27 27
12 14 15 15 15 15 15 16 17 18 20 21 21 22 21 20 20 21 22 23 25 25 26 26 26 27 27 27 27 27 27 27 26 25 26 25 25 24 25 26 26 26 27 27
12 14 15 15 15 15 15 15 16 17 18 19 19 20 20 20 20 21 21 23 24 25 25 25 25 25 26 27 27 27 27 27 26 26 25 24 22 22 23 25 26 26 27 28
12 14 15 15 15 15 15 15 15 16 16 17 18 19 19 20 20 22 22 23 24 25 25 25 25 25 25 26 27 26 26 26 26 27 26 24 22 22 24 25 25 25 26 27
12 12 14 15 14 14 14 13 14 15 15 15 16 18 18 19 20 21 21 22 23 25 26 25 25 25 25 25 26 26 26 27 27 28 27 25 24 23 24 24 24 24 25 25
13 12 13 13 12 12 12 12 12 14 14 15 16 17 18 19 19 20 21 22 23 24 24 25 25 26 26 25 26 27 26 26 27 27 27 26 24 23 24 24 25 25 25 25
13 13 12 12 11 10 10 11 12 13 13 14 14 15 16 17 17 18 19 21 22 23 22 23 25 25 25 25 25 25 25 25 25 26 26 24 24 24 24 25 26 26 25 25
12 12 11 10 9 10 10 10 11 12 14 15 15 14 13 14 14 16 18 19 20 21 23 24 25 26 25 25 25 25 25 24 24 24 25 25 24 25 25 26 26 26 26 27
10 11 10 9 8 8 9 10 11 12 12 13 14 13 12 12 13 14 14 15 17 19 20 22 23 24 24 24 25 25 24 24 25 25 25 25 25 25 25 25 26 26 26 27
8 8 8 7 6 6 7 9 10 11 11 12 12 12 12 11 12 13 13 14 15 16 17 19 21 22 24 24 25 25 25 24 24 25 25 25 25 25 25 25 26 26 26 28
7 6 6 6 6 6 7 8 9 9 10 11 12 11 11 11 11 12 12 13 13 14 15 15 17 19 20 22 23 24 24 24 24 25 25 25 25 25 26 27 27 27 27 28
6 5 5 5 6 6 7 7 8 9 10 11 11 11 10 11 11 11 12 13 13 13 13 13 15 17 18 20 21 22 23 24 24 24 24 24 24 25 25 26 27 27 27 27
5 5 5 5 5 6 6 7 7 9 10 11 10 10 10 10 10 11 11 12 13 13 13 14 15 16 18 19 21 22 22 23 23 23 23 23 23 23 24 25 26 26 27 28
4 3 4 5 6 7 7 8 9 10 10 10 10 10 10 10 11 11 11 11 12 13 13 14 15 16 17 18 19 20 22 22 22 22 23 23 23 23 23 24 25 26 26 27
3 3 4 5 7 7 9 9 9 10 10 10 11 11 10 11 11 11 11 11 12 12 13 14 15 16 17 17 18 19 20 21 22 22 22 22 22 23 23 24 24 24 25 25
3 4 5 6 7 8 9 9 10 10 10 11 11 11 11 11 11 11 11 11 12 13 13 14 15 16 16 17 18 18 18 19 19 20 20 21 22 22 23 23 23 24 24 25
4 4 5 6 8 9 9 10 10 11 11 11 11 11 11 12 11 12 12 12 13 13 13 14 15 15 16 16 16 17 17 18 18 18 18 19 21 22 22 22 23 23 24 24
4 4 5 6 8 9 10 11 11 11 12 12 12 12 12 12 11 11 11 11 12 13 13 13 15 15 15 16 16 16 16 16 17 17 18 19 20 20 20 20 21 21 21 21
3 4 5 6 8 9 10 11 11 12 12 13 13 13 12 11 11 11 11 11 11 12 13 14 14 15 15 15 16 16 16 16 17 17 17 17 18 18 19 18 19 19 19 19
2 3 5 6 8 9 10 10 11 12 12 13 13 13 12 11 11 11 11 11 12 11 12 13 14 15 14 14 15 15 15 16 16 15 16 16 16 17 17 17 18 18 18 18
2 3 5 6 8 9 10 11 12 12 13 13 13 13 13 12 11 11 11 11 11 11 11 12 13 13 13 13 13 14 14 14 15 15 15 15 15 15 15 16 16 16 16 16
1 2 4 7 8 9 10 11 12 12 13 13 13 13 13 12 12 12 12 11 10 9 10 10 10 10 10 11 11 12 12 12 13 13 13 13 13 13 13 13 13 13 13 12
1 2 4 6 8 9 10 11 12 13 13 14 14 14 14 13 12 12 11 10 10 9 9 10 10 10 10 10 10 10 10 10 10 11 11 11 11 11 11 11 11 11 10 10
Wind_Direction
290 289 286 285 282 280 276 271 264 256 251 251 251 251 249 243 239 238 238 238 238 240 242 245 248 251 253 256 258 260 264 268 268 265 258 257 256 252 251 246 244 242 243 241
289 288 287 285 282 280 276 272 264 256 252 251 249 248 247 243 239 238 239 240 240 240 241 243 247 249 251 254 257 259 263 264 266 264 262 261 259 257 250 246 244 246 247 245
288 290 289 285 281 279 273 269 262 257 254 252 250 248 245 242 241 240 240 240 240 241 242 244 246 247 251 255 259 262 265 265 266 266 266 262 261 262 251 244 244 247 246 246
292 292 290 285 279 275 270 268 263 259 256 253 251 251 246 242 241 241 241 240 240 240 242 245 247 249 252 255 257 261 264 264 265 266 270 265 261 258 246 242 246 247 244 245
296 295 295 288 277 276 274 269 263 258 256 256 253 252 249 246 245 243 243 242 240 241 244 247 250 251 252 254 256 259 261 265 267 268 270 270 265 256 246 246 248 249 250 250
299 296 296 294 280 276 276 273 265 260 256 257 255 254 252 250 249 246 244 243 242 245 248 249 253 255 254 255 256 259 261 265 267 269 271 270 266 260 252 249 250 253 252 251
300 297 294 290 284 278 278 276 268 262 254 253 256 258 258 256 255 256 253 250 249 251 253 252 253 256 257 256 257 260 262 265 267 270 271 269 264 260 256 254 254 253 252 253
307 301 294 289 286 285 277 273 268 269 261 258 255 261 264 263 262 263 262 258 255 253 255 256 257 258 257 257 258 261 263 264 266 268 267 267 267 264 263 262 264 262 259 260
312 308 300 294 288 282 273 269 264 265 269 268 265 265 268 269 268 268 265 262 258 257 255 256 258 258 258 259 259 260 262 266 268 268 266 268 267 267 267 267 267 266 265 263
306 304 298 294 287 279 271 267 265 267 271 273 273 272 271 270 268 267 267 262 262 261 259 258 258 261 260 260 260 261 263 266 267 267 266 268 269 268 268 268 266 264 263 264
302 302 297 295 288 280 274 269 265 268 273 276 280 282 281 278 276 277 275 267 262 261 260 260 261 261 260 260 260 262 266 268 266 266 267 266 266 266 268 268 266 264 264 266
303 303 299 297 291 281 277 272 271 272 278 281 287 285 284 284 284 283 281 275 271 266 265 264 263 259 259 259 260 261 263 266 266 265 266 265 264 265 266 267 267 267 269 270
304 305 307 304 299 289 285 281 277 279 281 286 291 293 291 289 282 281 286 284 277 270 268 265 265 262 261 261 261 260 263 265 265 264 265 266 266 267 267 267 267 268 270 272
306 308 313 314 311 299 292 285 283 287 286 290 296 296 295 289 286 284 285 287 285 282 273 267 263 263 263 262 262 262 263 266 266 265 265 266 267 268 268 268 269 270 272 273
302 306 314 321 316 306 308 298 297 299 294 293 296 294 295 294 295 291 286 290 290 285 280 273 271 267 267 266 265 265 265 266 265 265 265 265 266 268 268 268 270 271 272 273
297 299 310 316 320 321 320 317 309 307 303 304 303 300 297 298 299 300 293 290 291 289 288 280 275 273 271 271 270 269 268 268 267 266 266 267 268 269 268 268 271 274 275 275
303 311 315 317 325 328 325 321 314 315 317 315 313 308 303 303 304 301 298 293 289 291 290 286 283 281 278 277 275 271 269 268 268 269 268 267 268 268 270 271 273 275 276 277
296 319 325 325 327 329 332 331 327 325 325 321 316 313 307 305 301 299 298 294 291 291 291 290 288 286 282 279 276 274 272 272 272 271 270 269 268 270 272 274 276 277 278 280
291 311 321 328 331 335 337 335 333 329 327 326 323 317 313 310 304 300 299 295 294 291 287 286 287 287 284 280 278 276 276 275 273 272 272 271 271 272 274 275 277 279 281 283
286 307 323 333 337 341 341 337 336 333 333 333 331 324 318 317 310 304 301 299 297 292 289 287 288 292 289 282 279 277 277 277 275 273 272 275 275 274 275 276 279 280 280 282
291 311 328 337 341 345 343 341 341 341 339 336 334 331 323 321 318 311 308 305 299 294 290 289 289 290 288 286 283 282 280 279 279 276 276 276 277 276 277 278 280 281 282 283
300 320 333 342 346 349 346 346 346 345 342 339 337 335 330 325 323 321 315 312 304 299 293 292 292 289 288 288 286 284 284 283 283 284 284 281 279 280 281 283 284 286 287 288
301 329 344 351 353 352 352 353 352 350 348 347 345 341 338 334 329 326 322 316 310 304 298 296 296 296 294 292 291 289 288 285 284 285 287 287 286 287 288 289 290 291 292 292
285 336 350 356 358 358 358 357 356 355 354 354 351 347 344 341 337 334 331 325 318 312 306 304 302 301 299 296 294 294 292 291 289 288 289 289 290 292 292 293 292 292 293 294
270 347 356 0 3 4 3 1 1 0 359 357 354 352 351 349 347 344 340 335 328 324 320 317 316 313 308 305 302 299 297 298 298 296 294 293 294 296 298 298 297 297 298 298
195 355 356 1 6 9 7 6 6 6 5 2 0 360 359 357 356 354 352 349 343 338 333 330 328 324 319 314 312 309 308 307 306 305 304 305 306 305 305 305 304 302 302 302
Height
5789 5788 5786 5785 5784 5783 5782 5782 5783 5783 5783 5783 5784 5785 5787 5790 5792 5794 5797 5800 5803 5807 5811 5813 5815 5817 5819 5821 5822 5823 5823 5823 5824 5825 5826 5827 5828 5829 5830 5831 5832 5834 5835 5836
5786 5784 5782 5781 5780 5779 5778 5778 5778 5779 5779 5779 5780 5781 5783 5785 5787 5789 5792 5794 5797 5801 5804 5807 5810 5812 5814 5815 5816 5817 5818 5818 5818 5819 5819 5820 5821 5821 5822 5824 5825 5827 5828 5829
5782 5781 5778 5777 5776 5775 5775 5775 5775 5775 5775 5775 5776 5777 5779 5781 5782 5785 5787 5790 5792 5795 5798 5801 5803 5806 5808 5809 5810 5811 5812 5813 5813 5813 5813 5813 5813 5813 5815 5817 5819 5820 5822 5823
5778 5777 5775 5774 5773 5772 5772 5771 5771 5770 5771 5771 5773 5773 5775 5776 5778 5780 5783 5785 5787 5790 5792 5795 5797 5800 5802 5803 5804 5805 5806 5807 5807 5806 5807 5806 5806 5806 5807 5810 5812 5813 5814 5816
5775 5773 5772 5771 5770 5769 5768 5768 5767 5767 5767 5768 5768 5769 5772 5773 5775 5777 5778 5780 5783 5785 5787 5790 5792 5794 5796 5797 5798 5800 5801 5801 5801 5800 5801 5801 5800 5800 5801 5803 5806 5807 5808 5810
5772 5770 5769 5767 5766 5766 5765 5765 5764 5763 5764 5764 5765 5766 5768 5769 5771 5772 5774 5775 5777 5780 5782 5784 5786 5788 5790 5791 5792 5793 5794 5795 5795 5795 5794 5794 5794 5794 5796 5798 5799 5800 5801 5803
5769 5767 5765 5764 5763 5763 5762 5762 5761 5761 5761 5762 5762 5763 5765 5766 5767 5768 5769 5771 5773 5774 5776 5778 5780 5782 5783 5785 5786 5786 5787 5788 5789 5789 5789 5789 5788 5788 5790 5791 5792 5793 5794 5796
5765 5765 5762 5761 5760 5759 5759 5759 5759 5759 5759 5759 5759 5760 5762 5762 5763 5763 5764 5766 5767 5769 5770 5772 5774 5775 5777 5778 5779 5780 5781 5781 5782 5783 5783 5782 5782 5783 5784 5785 5785 5786 5787 5789
5763 5762 5760 5758 5757 5757 5756 5755 5756 5756 5756 5757 5757 5757 5758 5758 5759 5759 5760 5761 5762 5763 5764 5766 5767 5769 5770 5771 5772 5773 5774 5775 5775 5776 5776 5776 5776 5777 5778 5778 5779 5780 5781 5782
5760 5759 5757 5756 5755 5754 5754 5754 5754 5754 5754 5754 5754 5754 5755 5754 5755 5755 5755 5756 5757 5758 5759 5760 5761 5762 5763 5764 5765 5766 5767 5767 5767 5768 5769 5768 5769 5770 5771 5771 5772 5773 5774 5775
5758 5756 5755 5754 5752 5752 5752 5752 5751 5752 5752 5751 5751 5753 5751 5751 5751 5751 5751 5751 5752 5752 5753 5754 5755 5755 5756 5757 5758 5759 5760 5760 5760 5761 5761 5762 5762 5763 5764 5764 5765 5766 5766 5767
5755 5754 5752 5752 5751 5750 5750 5749 5749 5750 5749 5749 5748 5751 5748 5747 5747 5747 5746 5746 5746 5746 5747 5747 5748 5749 5750 5751 5752 5752 5753 5754 5754 5754 5755 5755 5756 5756 5757 5757 5757 5758 5759 5759
5753 5752 5751 5750 5751 5750 5748 5747 5747 5747 5747 5746 5746 5748 5744 5744 5743 5743 5743 5742 5742 5742 5742 5742 5742 5743 5744 5744 5745 5746 5746 5747 5747 5748 5748 5748 5749 5749 5750 5750 5750 5751 5751 5751
5752 5751 5751 5750 5748 5747 5746 5746 5745 5745 5744 5744 5743 5743 5742 5741 5740 5739 5739 5738 5738 5737 5736 5736 5736 5737 5737 5737 5738 5739 5739 5740 5740 5740 5740 5741 5741 5741 5742 5743 5743 5743 5743 5743
5751 5750 5749 5748 5747 5746 5745 5744 5744 5743 5742 5741 5741 5739 5739 5737 5736 5736 5735 5734 5733 5732 5732 5732 5731 5731 5731 5731 5731 5731 5732 5732 5733 5733 5733 5734 5734 5734 5735 5735 5735 5735 5736 5735
5750 5749 5748 5747 5746 5745 5744 5743 5742 5741 5739 5738 5737 5736 5735 5734 5733 5732 5731 5730 5729 5728 5727 5727 5726 5726 5726 5725 5725 5725 5725 5725 5725 5726 5726 5727 5727 5727 5727 5728 5728 5728 5728 5727
5749 5748 5747 5746 5744 5744 5743 5741 5740 5739 5737 5736 5734 5734 5731 5730 5729 5728 5727 5725 5724 5724 5723 5722 5721 5720 5720 5719 5719 5718 5718 5718 5719 5719 5719 5720 5720 5720 5720 5721 5721 5720 5720 5719
5748 5747 5746 5745 5745 5743 5744 5740 5738 5737 5735 5733 5731 5730 5728 5727 5726 5724 5723 5722 5720 5719 5718 5717 5716 5716 5715 5714 5713 5712 5712 5712 5712 5712 5712 5713 5713 5713 5713 5713 5713 5713 5712 5712
5747 5747 5746 5744 5743 5742 5741 5739 5736 5735 5733 5731 5728 5727 5725 5723 5722 5720 5719 5717 5716 5715 5714 5713 5712 5711 5710 5709 5708 5707 5706 5706 5706 5706 5706 5706 5707 5707 5707 5707 5706 5706 5705 5705
5746 5746 5745 5743 5742 5741 5740 5737 5734 5734 5731 5728 5726 5723 5722 5720 5719 5718 5715 5713 5712 5711 5709 5708 5707 5706 5705 5704 5703 5702 5702 5701 5701 5701 5701 5700 5700 5700 5700 5700 5700 5699 5699 5698
5745 5745 5744 5742 5741 5739 5738 5735 5733 5732 5730 5726 5723 5721 5719 5717 5716 5714 5711 5710 5708 5707 5705 5704 5703 5702 5701 5699 5698 5698 5697 5697 5696 5696 5696 5695 5695 5695 5694 5694 5693 5693 5692 5691
5744 5744 5743 5741 5740 5741 5736 5734 5732 5730 5726 5724 5721 5719 5716 5714 5712 5710 5708 5706 5704 5703 5702 5700 5699 5697 5696 5695 5694 5693 5693 5692 5691 5691 5691 5690 5690 5689 5689 5688 5687 5686 5685 5685
5743 5744 5742 5741 5741 5738 5735 5732 5730 5727 5725 5722 5719 5717 5714 5712 5709 5707 5705 5703 5701 5700 5698 5697 5695 5693 5692 5691 5690 5689 5688 5688 5687 5686 5686 5685 5684 5684 5683 5682 5682 5681 5680 5679
5743 5742 5741 5740 5738 5736 5734 5731 5729 5726 5723 5721 5718 5715 5713 5710 5707 5705 5702 5700 5698 5697 5695 5693 5692 5690 5689 5687 5686 5685 5684 5683 5683 5682 5681 5681 5680 5679 5678 5678 5677 5676 5675 5674
5742 5742 5741 5739 5738 5735 5733 5731 5728 5726 5723 5720 5717 5714 5711 5708 5706 5703 5700 5698 5696 5694 5693 5691 5689 5687 5686 5684 5683 5682 5681 5680 5679 5678 5677 5677 5676 5675 5674 5673 5673 5672 5671 5670
5742 5742 5741 5740 5738 5736 5734 5731 5728 5726 5723 5720 5717 5713 5710 5707 5704 5702 5699 5697 5695 5693 5691 5689 5687 5685 5683 5682 5681 5680 5679 5677 5676 5675 5674 5674 5673 5672 5671 5670 5669 5668 5668 5667